Las Cruces International Airport Las Cruces US
ICAO: KLRU
IATA: LRU
Category: Medium
Scheduled Services: No

Elevation: 4456 ft
TransAlt. 18000 ft.

Airport Communications:
AWOS 3:119.025
ALBUQUERQUE CNTR:128.2
CTAF/UNICOM:122.7

KLRU Zoom In..

If you have problems with the map follow the link
https://www.worldairports.se/pages/airport.php?
ICAO=KLRU

Runways:

(A) RW 04 length 7501 ft width 105 ft
---- / hdg 44

(B) RW 08 length 6069 ft width 100 ft
---- / hdg 79

(C) RW 12 length 7506 ft width 100 ft
---- / hdg 124

(D) RW 22 length 7501 ft width 105 ft
---- / hdg 224

(E) RW 26 length 6069 ft width 100 ft
---- / hdg 259

(F) RW 30 length 7506 ft width 100 ft
ILS 109.30 / hdg 304

Location; KLRU
Day. 14 / Time. 15.15 Zulu
* Altimeter: 29.97
* Temperature: 11° c. 51.8°f.
* Wind from: 270° Speed 12 kn.
Dewpoint: 01° c.
Visibility: 10 Statute Miles.
Clouds: Clear (automated report).

KLRU 141515Z AUTO 27012KT 10SM CLR 11/01 A2997 RMK AO2 T01050014


Wind From 270°
Speed 12 kn.

 
 
jpsmedia worldairports.se 2019   terms of use